Location: Wildlife_Club
(35.6000°N, 81.4330°W)
Time: 00:53:28
(UTC-04:00)

A-11 Canister half - Pass Details

Date: 25 June 2019
Orbit: 1526 x 1683 km, 47.3° (Epoch: 16 August)

Event Time Altitude Azimuth Distance (km) Brightness Sun altitude
Exits shadow 01:42:06 10° 114° (ESE) 3,775 10.8 -30.9°
Drops below altitude 10° 01:42:18 10° 113° (ESE) 3,781 10.9 -30.9°
Sets 01:49:29 0° 77° (ENE) 4,725 11.8 -30.8°
